Weather History for Seminole, TX

Change the Weather History Date:

Wednesday, May 23, 2012

  Actual Average (KHOB) Record (KHOB)
Temperature  
Mean Temperature 79 °F -  
Max Temperature 98 °F 87 °F 105 °F (2000)
Min Temperature 60 °F 58 °F 50 °F (1956)
Cooling Degree Days 14    
Growing Degree Days 29 (Base 50)    
Moisture  
Dew Point 38 °F    
Average Humidity 32    
Maximum Humidity 76    
Minimum Humidity 7    
Precipitation  
Precipitation 0.00 in - - ()
Sea Level Pressure  
Sea Level Pressure 29.69 in    
Wind  
Wind Speed 10 mph (SW)    
Max Wind Speed 22 mph    
Max Gust Speed 28 mph    
Visibility 10 miles    
Events      
Averages and records for this station are not official NWS values.
T = Trace of Precipitation, MM = Missing Value Source: NWS Daily Summary

Daily Weather History Graph

Daily Weather History Graph

Search for Another Location

Airport:

Trip Planner

Search our weather history database for the weather conditions in past years. The results will help you decide how hot, cold, wet, or windy it might be!

Date:

Astronomy

May. 23, 2012 Rise Set
Actual Time 6:46 AM CDT 8:48 PM CDT
Civil Twilight 6:19 AM CDT 9:15 PM CDT
Nautical Twilight 5:45 AM CDT 9:49 PM CDT
Astronomical Twilight 5:09 AM CDT 10:25 PM CDT
Moon 8:52 AM CDT 11:11 PM CDT
Length of Visible Light 14h 56m
Length of Day
14h 01m
Waxing Crescent, 7% of the Moon is Illuminated
May 23
Waxing Crescent
May 28
First Quarter
Jun 4
Full
Jun 11
Last Quarter
Jun 19
New

Hourly Weather History & Observations

Time (CDT) Temp. Dew Point Humidity Pressure Visibility Wind Dir Wind Speed Gust Speed Precip Events Conditions
12:15 AM 73.9 °F 54.5 °F 51% 29.82 in 10.0 mi South 9.2 mph - N/A   Clear
12:35 AM 72.9 °F 54.7 °F 53% 29.82 in 10.0 mi South 9.2 mph - N/A   Clear
12:55 AM 72.0 °F 54.9 °F 55% 29.80 in 10.0 mi South 9.2 mph - N/A   Clear
1:15 AM 70.9 °F 55.0 °F 57% 29.80 in 10.0 mi South 8.1 mph - N/A   Clear
1:35 AM 69.8 °F 55.0 °F 59% 29.79 in 10.0 mi South 5.8 mph - N/A   Clear
1:55 AM 68.7 °F 55.0 °F 62% 29.79 in 10.0 mi South 8.1 mph - N/A   Clear
2:15 AM 68.0 °F 55.0 °F 63% 29.77 in 10.0 mi SSE 8.1 mph - N/A   Clear
2:35 AM 67.5 °F 54.9 °F 64% 29.77 in 10.0 mi South 8.1 mph - N/A   Clear
3:15 AM 67.1 °F 54.5 °F 64% 29.76 in 10.0 mi SSW 8.1 mph - N/A   Clear
3:35 AM 67.5 °F 54.7 °F 64% 29.76 in 10.0 mi SSW 8.1 mph - N/A   Clear
3:55 AM 67.6 °F 54.9 °F 64% 29.75 in 10.0 mi SSW 9.2 mph - N/A   Clear
4:15 AM 67.5 °F 54.9 °F 64% 29.74 in 10.0 mi South 10.4 mph - N/A   Clear
4:35 AM 67.1 °F 55.0 °F 65% 29.73 in 10.0 mi South 10.4 mph - N/A   Clear
4:55 AM 66.6 °F 55.0 °F 66% 29.73 in 10.0 mi South 9.2 mph - N/A   Clear
5:15 AM 66.0 °F 55.0 °F 68% 29.73 in 10.0 mi SSW 9.2 mph - N/A   Clear
5:35 AM 65.5 °F 54.9 °F 68% 29.73 in 10.0 mi SSW 8.1 mph - N/A   Clear
5:55 AM 64.4 °F 54.7 °F 71% 29.73 in 10.0 mi SW 8.1 mph - N/A   Clear
6:15 AM 63.3 °F 54.3 °F 72% 29.73 in 10.0 mi SW 5.8 mph - N/A   Clear
6:35 AM 61.7 °F 53.8 °F 75% 29.73 in 10.0 mi West 4.6 mph - N/A   Clear
6:55 AM 60.8 °F 53.2 °F 76% 29.73 in 10.0 mi West 5.8 mph - N/A   Clear
7:15 AM 61.2 °F 52.9 °F 74% 29.74 in 10.0 mi WNW 3.5 mph - N/A   Clear
7:35 AM 61.0 °F 53.1 °F 75% 29.74 in 10.0 mi Calm Calm - N/A   Clear
7:55 AM 61.9 °F 53.6 °F 74% 29.75 in 10.0 mi West 5.8 mph - N/A   Clear
8:15 AM 63.7 °F 53.8 °F 70% 29.75 in 10.0 mi WSW 5.8 mph - N/A   Clear
8:35 AM 66.2 °F 54.1 °F 65% 29.75 in 10.0 mi WSW 8.1 mph - N/A   Clear
8:55 AM 69.1 °F 53.6 °F 58% 29.76 in 10.0 mi WSW 11.5 mph - N/A   Clear
9:15 AM 72.7 °F 52.2 °F 48% 29.76 in 10.0 mi WSW 10.4 mph - N/A   Clear
9:35 AM 76.5 °F 48.7 °F 38% 29.76 in 10.0 mi WSW 11.5 mph - N/A   Clear
9:55 AM 79.9 °F 46.2 °F 30% 29.76 in 10.0 mi West 10.4 mph - N/A   Clear
10:15 AM 82.6 °F 44.6 °F 26% 29.76 in 10.0 mi WSW 10.4 mph - N/A   Clear
10:35 AM 85.3 °F 41.9 °F 22% 29.75 in 10.0 mi WSW 11.5 mph - N/A   Clear
10:55 AM 87.6 °F 36.9 °F 17% 29.75 in 10.0 mi West 8.1 mph - N/A   Clear
11:15 AM 89.4 °F 32.7 °F 13% 29.74 in 10.0 mi West 10.4 mph 18.4 mph N/A   Clear
11:35 AM 90.7 °F 29.8 °F 11% 29.73 in 10.0 mi West 9.2 mph 16.1 mph N/A   Clear
11:55 AM 92.1 °F 29.5 °F 11% 29.73 in 10.0 mi WNW 12.7 mph - N/A   Clear
12:15 PM 93.2 °F 28.2 °F 10% 29.73 in 10.0 mi West 9.2 mph 17.3 mph N/A   Clear
12:35 PM 94.3 °F 27.1 °F 9% 29.72 in 10.0 mi WSW 10.4 mph - N/A   Clear
12:55 PM 95.0 °F 25.9 °F 8% 29.71 in 10.0 mi WSW 16.1 mph 21.9 mph N/A   Clear
1:15 PM 95.0 °F 26.4 °F 9% 29.71 in 10.0 mi West 15.0 mph 20.7 mph N/A   Clear
1:35 PM 94.5 °F 25.5 °F 8% 29.70 in 10.0 mi West 15.0 mph 18.4 mph N/A   Clear
1:55 PM 95.2 °F 26.4 °F 9% 29.69 in 10.0 mi WSW 11.5 mph 20.7 mph N/A   Clear
2:15 PM 96.1 °F 26.6 °F 8% 29.68 in 10.0 mi West 15.0 mph 23.0 mph N/A   Clear
2:35 PM 96.3 °F 25.0 °F 8% 29.67 in 10.0 mi West 17.3 mph 23.0 mph N/A   Clear
2:55 PM 97.0 °F 25.7 °F 8% 29.66 in 10.0 mi SW 16.1 mph 26.5 mph N/A   Clear
3:15 PM 97.2 °F 25.2 °F 8% 29.65 in 7.0 mi West 19.6 mph 27.6 mph N/A   Clear
3:35 PM 97.7 °F 26.6 °F 8% 29.64 in 10.0 mi WSW 18.4 mph 25.3 mph N/A   Clear
3:55 PM 97.9 °F 25.3 °F 8% 29.63 in 10.0 mi WSW 18.4 mph 24.2 mph N/A   Clear
4:15 PM 98.2 °F 26.2 °F 8% 29.62 in 10.0 mi SW 21.9 mph 25.3 mph N/A   Clear
4:35 PM 98.1 °F 24.4 °F 7% 29.62 in 10.0 mi West 15.0 mph 27.6 mph N/A   Clear
4:55 PM 97.9 °F 25.2 °F 7% 29.60 in 10.0 mi WSW 15.0 mph 26.5 mph N/A   Clear
5:15 PM 97.9 °F 24.8 °F 7% 29.60 in 10.0 mi West 18.4 mph 26.5 mph N/A   Clear
5:35 PM 98.1 °F 25.2 °F 7% 29.59 in 10.0 mi WSW 18.4 mph 26.5 mph N/A   Clear
5:55 PM 98.2 °F 24.4 °F 7% 29.59 in 10.0 mi West 20.7 mph 26.5 mph N/A   Clear
6:15 PM 98.2 °F 23.5 °F 7% 29.58 in 10.0 mi WSW 19.6 mph 26.5 mph N/A   Clear
6:35 PM 98.2 °F 24.1 °F 7% 29.58 in 10.0 mi WSW 20.7 mph 26.5 mph N/A   Clear
6:55 PM 97.3 °F 23.7 °F 7% 29.57 in 10.0 mi West 20.7 mph 27.6 mph N/A   Clear
7:15 PM 97.0 °F 24.1 °F 7% 29.57 in 10.0 mi WSW 17.3 mph 26.5 mph N/A   Clear
7:35 PM 96.4 °F 25.2 °F 8% 29.57 in 10.0 mi WSW 17.3 mph 23.0 mph N/A   Clear
7:55 PM 95.4 °F 25.2 °F 8% 29.57 in 10.0 mi WSW 15.0 mph 19.6 mph N/A   Clear
8:15 PM 93.6 °F 26.2 °F 9% 29.57 in 10.0 mi SW 10.4 mph - N/A   Clear
8:35 PM 91.0 °F 26.8 °F 10% 29.57 in 10.0 mi SW 9.2 mph - N/A   Clear
8:55 PM 88.2 °F 27.1 °F 11% 29.57 in 10.0 mi SW 8.1 mph - N/A   Clear
9:15 PM 85.6 °F 27.3 °F 12% 29.57 in 10.0 mi SW 8.1 mph - N/A   Clear
9:35 PM 83.3 °F 27.9 °F 13% 29.58 in 10.0 mi SW 6.9 mph - N/A   Clear
9:55 PM 83.7 °F 27.1 °F 13% 29.59 in 10.0 mi SW 10.4 mph - N/A   Scattered Clouds
10:15 PM 82.9 °F 26.8 °F 13% 29.59 in 10.0 mi SW 8.1 mph - N/A   Scattered Clouds
10:35 PM 82.2 °F 27.5 °F 14% 29.59 in 10.0 mi SW 9.2 mph - N/A   Clear
10:55 PM 80.6 °F 28.0 °F 15% 29.59 in 10.0 mi SW 9.2 mph - N/A   Clear
11:15 PM 80.4 °F 28.4 °F 15% 29.60 in 10.0 mi SW 10.4 mph - N/A   Clear
11:35 PM 80.2 °F 28.9 °F 15% 29.60 in 10.0 mi SW 8.1 mph - N/A   Clear
11:55 PM 79.2 °F 29.3 °F 16% 29.60 in 10.0 mi SW 9.2 mph - N/A   Clear